This is the latest recevied weather packets stored in our database for station/object KK6MIG-13. If no packets are shown the sender has not sent any weather packets the latest 10 day(s).
| Time | Temp. | Humidity | Pressure | Rain* | Wind** | Luminosity | Snow |
|---|---|---|---|---|---|---|---|
| 1788053671 | 16.67° C | 44% | 1012.3 hPa | 0 mm | - | 167 W/m² | - |
| 1788053547 | 16.67° C | 44% | 1012.3 hPa | 0 mm | - | 179 W/m² | - |
| 1788053486 | 16.67° C | 45% | 1012.2 hPa | 0 mm | - | 183 W/m² | - |
| 1788053426 | 16.67° C | 44% | 1012.2 hPa | 0 mm | - | 186 W/m² | - |
| 1788053366 | 16.67° C | 43% | 1012.2 hPa | 0 mm | - | 190 W/m² | - |
| 1788053307 | 16.67° C | 44% | 1012.2 hPa | 0 mm | - | 193 W/m² | - |
| 1788053247 | 16.67° C | 44% | 1012.2 hPa | 0 mm | - | 197 W/m² | - |
| 1788053185 | 16.67° C | 45% | 1012.3 hPa | 0 mm | - | 204 W/m² | - |
| 1788053124 | 16.67° C | 45% | 1012.2 hPa | 0 mm | - | 206 W/m² | - |
| 1788053065 | 16.67° C | 44% | 1012.2 hPa | 0 mm | - | 211 W/m² | - |
| 1788053005 | 16.67° C | 44% | 1012.3 hPa | 0 mm | - | 213 W/m² | - |
| 1788052945 | 16.67° C | 42% | 1012.3 hPa | 0 mm | - | 218 W/m² | - |
| 1788052885 | 16.67° C | 43% | 1012.3 hPa | 0 mm | - | 223 W/m² | - |
| 1788052825 | 16.67° C | 43% | 1012.3 hPa | 0 mm | - | 229 W/m² | - |
| 1788052765 | 16.67° C | 41% | 1012.3 hPa | 0 mm | - | 232 W/m² | - |
| 1788052705 | 16.67° C | 43% | 1012.3 hPa | 0 mm | - | 236 W/m² | - |
| 1788052644 | 16.67° C | 42% | 1012.3 hPa | 0 mm | - | 239 W/m² | - |
| 1788052578 | 16.67° C | 41% | 1012.3 hPa | 0 mm | - | 246 W/m² | - |
| 1788052518 | 16.67° C | 40% | 1012.3 hPa | 0 mm | - | 248 W/m² | - |
| 1788052459 | 16.67° C | 40% | 1012.3 hPa | 0 mm | - | 251 W/m² | - |
| 1788052399 | 16.67° C | 44% | 1012.3 hPa | 0 mm | - | 253 W/m² | - |
| 1788052338 | 16.67° C | 43% | 1012.3 hPa | 0 mm | - | 258 W/m² | - |
| 1788052273 | 16.67° C | 42% | 1012.3 hPa | 0 mm | - | 264 W/m² | - |
| 1788052213 | 16.67° C | 41% | 1012.3 hPa | 0 mm | - | 267 W/m² | - |
| 1788052161 | 16.67° C | 37% | 1012.3 hPa | 0 mm | - | 272 W/m² | - |
* Rain latest hour (hover to see other rain measurements)
** Current wind speed in m/s (hover to see current wind gust speed)